Weather History for Charlotte, NC

Change the Weather History Date:

Saturday, September 6, 2003

  Actual Average Record
Temperature  
Mean Temperature 68 °F 74 °F  
Max Temperature 72 °F 84 °F 104 °F (1954)
Min Temperature 63 °F 64 °F 53 °F (1924)
Degree Days  
Heating Degree Days 0 0  
Month to date heating degree days 0  
Since 1 July heating degree days 0  
Cooling Degree Days 2 9  
Month to date cooling degree days 58  
Year to date cooling degree days 1335  
Growing Degree Days 18 (Base 50)    
Moisture  
Dew Point 60 °F    
Average Humidity 77    
Maximum Humidity 87    
Minimum Humidity 63    
Precipitation  
Precipitation 0.00 in 0.11 in 3.47 in (1974)
Month to date precipitation 0.67  
Year to date precipitation 29.27  
Snow  
Snow 0.00 in 0.00 in 0.00 in ()
Month to date snowfall 0.0  
Since 1 July snowfall 0.0  
Since 1 September snowfall 0.0  
Snow Depth -    
Sea Level Pressure  
Sea Level Pressure 30.08 in    
Wind  
Wind Speed 8 mph (NE)    
Max Wind Speed 10 mph    
Max Gust Speed 16 mph    
Visibility 10 miles    
Events      
T = Trace of Precipitation, MM = Missing Value Source: NWS Daily Summary

Daily Weather History Graph

Daily Weather History Graph

Search for Another Location

Airport:

Trip Planner

Search our weather history database for the weather conditions in past years. The results will help you decide how hot, cold, wet, or windy it might be!

Date:

Astronomy

Sep. 06, 2003 Rise Set
Actual Time 6:59 AM EDT 7:44 PM EDT
Civil Twilight 6:33 AM EDT 8:09 PM EDT
Nautical Twilight 6:03 AM EDT 8:40 PM EDT
Astronomical Twilight 5:32 AM EDT 9:11 PM EDT
Moon 5:41 PM EDT (9/6) 2:24 AM EDT (9/6)
Length of Visible Light 13h 35m
Length of Day
12h 44m
Waxing Gibbous, 83% of the Moon is Illuminated
Sep 6
Waxing Gibbous
Sep 10
Full
Sep 18
Last Quarter
Sep 25
New
Oct 2
First Quarter

Hourly Weather History & Observations

Time (EDT) Temp. Dew Point Humidity Pressure Visibility Wind Dir Wind Speed Gust Speed Precip Events Conditions
12:51 AM 71.1 °F 64.9 °F 81% 30.04 in 7.0 mi ENE 8.1 mph - N/A   Overcast
1:51 AM 70.0 °F 64.0 °F 81% 30.04 in 7.0 mi ENE 8.1 mph - N/A   Overcast
2:51 AM 68.0 °F 64.0 °F 87% 30.04 in 7.0 mi NE 6.9 mph - N/A   Overcast
3:51 AM 66.9 °F 63.0 °F 87% 30.03 in 8.0 mi ENE 9.2 mph - N/A   Overcast
4:51 AM 66.0 °F 62.1 °F 87% 30.03 in 9.0 mi NE 10.4 mph - N/A   Overcast
5:51 AM 64.0 °F 60.1 °F 87% 30.06 in 10.0 mi NNE 9.2 mph - N/A   Overcast
6:51 AM 63.0 °F 59.0 °F 87% 30.08 in 10.0 mi NE 9.2 mph - N/A   Overcast
7:51 AM 63.0 °F 57.9 °F 84% 30.10 in 10.0 mi NE 8.1 mph - N/A   Overcast
8:51 AM 63.0 °F 57.0 °F 81% 30.12 in 10.0 mi NE 10.4 mph - N/A   Overcast
9:51 AM 64.9 °F 55.9 °F 73% 30.12 in 10.0 mi NE 8.1 mph - N/A   Overcast
10:51 AM 66.0 °F 57.0 °F 73% 30.12 in 10.0 mi NNE 9.2 mph - N/A   Overcast
11:51 AM 68.0 °F 57.0 °F 68% 30.12 in 10.0 mi NNE 10.4 mph - N/A   Overcast
12:51 PM 70.0 °F 57.0 °F 63% 30.12 in 10.0 mi NE 10.4 mph - N/A   Overcast
1:51 PM 70.0 °F 57.0 °F 63% 30.10 in 10.0 mi NE 9.2 mph - N/A   Overcast
2:51 PM 71.1 °F 59.0 °F 66% 30.08 in 10.0 mi NE 6.9 mph 16.1 mph N/A   Overcast
3:51 PM 72.0 °F 60.1 °F 66% 30.06 in 10.0 mi NNE 6.9 mph - N/A   Overcast
4:51 PM 71.1 °F 60.1 °F 68% 30.06 in 10.0 mi NNE 6.9 mph - N/A   Overcast
5:51 PM 70.0 °F 61.0 °F 73% 30.06 in 10.0 mi North 6.9 mph - N/A   Overcast
6:51 PM 68.0 °F 61.0 °F 78% 30.07 in 10.0 mi North 6.9 mph - N/A   Mostly Cloudy
7:51 PM 66.0 °F 61.0 °F 84% 30.07 in 10.0 mi North 5.8 mph - N/A   Mostly Cloudy
8:51 PM 66.9 °F 59.0 °F 76% 30.08 in 10.0 mi NE 4.6 mph - N/A   Mostly Cloudy
9:51 PM 64.9 °F 57.9 °F 78% 30.09 in 10.0 mi NE 5.8 mph - N/A   Overcast
10:51 PM 66.0 °F 57.9 °F 75% 30.08 in 10.0 mi ENE 6.9 mph - N/A   Overcast
11:51 PM 66.0 °F 57.9 °F 75% 30.08 in 10.0 mi NE 5.8 mph - N/A   Overcast